VBD207 ESMT-ESMS

Flight info

Callsign VBD207
Flight time 0h 29m
Altitude 3500
Route VFR
Aircraft C208/L-SDFGR/C

Departure

Time 2026-04-22 06:09
Airport Halmstad Airport (ESMT)

Arrival

Time 2026-04-22 06:38
Airport Malmö Sturup Airport (ESMS)
Time Latitude Longitude Altitude Speed Heading
2026-04-22 05:53 56.68314 12.81383 74 ft 0 kts 94°
2026-04-22 06:02 56.68291 12.81392 70 ft 11 kts 179°
2026-04-22 06:02 56.68204 12.81445 70 ft 12 kts 138°
2026-04-22 06:02 56.68169 12.81662 73 ft 20 kts 102°
2026-04-22 06:02 56.68154 12.81837 68 ft 14 kts 41°
2026-04-22 06:03 56.68147 12.82037 71 ft 21 kts 112°
2026-04-22 06:03 56.68120 12.82167 68 ft 13 kts 98°
2026-04-22 06:03 56.68189 12.82378 73 ft 16 kts 51°
2026-04-22 06:03 56.68252 12.82524 74 ft 10 kts 51°
2026-04-22 06:04 56.68305 12.82625 75 ft 13 kts 21°
2026-04-22 06:04 56.68421 12.82673 73 ft 19 kts 355°
2026-04-22 06:04 56.68542 12.82614 72 ft 17 kts 344°
2026-04-22 06:04 56.68622 12.82572 76 ft 19 kts 343°
2026-04-22 06:05 56.68781 12.82486 81 ft 16 kts 345°
2026-04-22 06:05 56.68852 12.82448 82 ft 18 kts 343°
2026-04-22 06:05 56.68966 12.82390 81 ft 18 kts 341°
2026-04-22 06:05 56.69107 12.82314 82 ft 11 kts 345°
2026-04-22 06:06 56.69205 12.82290 83 ft 16 kts
2026-04-22 06:06 56.69321 12.82310 84 ft 19 kts
2026-04-22 06:06 56.69408 12.82328 85 ft 16 kts
2026-04-22 06:06 56.69503 12.82347 86 ft 14 kts
2026-04-22 06:07 56.69588 12.82338 88 ft 14 kts 339°
2026-04-22 06:07 56.69662 12.82211 88 ft 12 kts 288°
2026-04-22 06:07 56.69647 12.82125 91 ft 0 kts 193°
2026-04-22 06:08 56.69534 12.82105 88 ft 47 kts 184°
2026-04-22 06:08 56.68983 12.82014 156 ft 100 kts 183°
2026-04-22 06:08 56.68248 12.81954 361 ft 115 kts 181°
2026-04-22 06:09 56.67325 12.81911 479 ft 133 kts 179°
2026-04-22 06:09 56.66417 12.82079 892 ft 133 kts 173°
2026-04-22 06:09 56.65469 12.82077 1179 ft 142 kts 187°
2026-04-22 06:09 56.64449 12.81935 1412 ft 151 kts 186°
2026-04-22 06:10 56.63382 12.81811 1649 ft 155 kts 185°
2026-04-22 06:10 56.62289 12.81944 1889 ft 159 kts 173°
2026-04-22 06:10 56.61183 12.82222 2127 ft 162 kts 174°
2026-04-22 06:10 56.60079 12.82497 2353 ft 163 kts 174°
2026-04-22 06:11 56.58953 12.82790 2582 ft 164 kts 173°
2026-04-22 06:11 56.57818 12.83083 2820 ft 165 kts 174°
2026-04-22 06:11 56.56677 12.83378 3045 ft 166 kts 173°
2026-04-22 06:11 56.55534 12.83675 3274 ft 166 kts 174°
2026-04-22 06:12 56.54386 12.83919 3491 ft 167 kts 180°
2026-04-22 06:12 56.53185 12.83940 3494 ft 177 kts 182°
2026-04-22 06:12 56.51933 12.83950 3503 ft 182 kts 182°
2026-04-22 06:12 56.50661 12.83959 3500 ft 184 kts 182°
2026-04-22 06:13 56.49390 12.83964 3509 ft 185 kts 182°
2026-04-22 06:13 56.48101 12.83972 3488 ft 186 kts 182°
2026-04-22 06:13 56.46807 12.83982 3488 ft 186 kts 182°
2026-04-22 06:13 56.45514 12.83995 3483 ft 186 kts 182°
2026-04-22 06:14 56.44220 12.84006 3488 ft 186 kts 182°
2026-04-22 06:14 56.42922 12.84014 3481 ft 188 kts 182°
2026-04-22 06:14 56.41616 12.84016 3478 ft 188 kts 182°
2026-04-22 06:14 56.40307 12.84020 3478 ft 188 kts 182°
2026-04-22 06:15 56.39001 12.84030 3472 ft 187 kts 182°
2026-04-22 06:15 56.37702 12.84043 3474 ft 186 kts 182°
2026-04-22 06:15 56.36422 12.84053 3474 ft 186 kts 182°
2026-04-22 06:15 56.35124 12.84064 3472 ft 187 kts 182°
2026-04-22 06:16 56.33822 12.84076 3475 ft 188 kts 182°
2026-04-22 06:16 56.32514 12.84086 3471 ft 188 kts 182°
2026-04-22 06:16 56.31208 12.84106 3471 ft 188 kts 182°
2026-04-22 06:16 56.29907 12.84144 3463 ft 185 kts 190°
2026-04-22 06:17 56.28693 12.83472 3466 ft 182 kts 205°
2026-04-22 06:17 56.27503 12.82689 3464 ft 182 kts 204°
2026-04-22 06:17 56.26328 12.81929 3467 ft 182 kts 204°
2026-04-22 06:17 56.25140 12.81158 3462 ft 181 kts 204°
2026-04-22 06:18 56.23954 12.80384 3467 ft 182 kts 204°
2026-04-22 06:18 56.22765 12.79607 3468 ft 181 kts 204°
2026-04-22 06:18 56.21576 12.78833 3467 ft 183 kts 204°
2026-04-22 06:18 56.20382 12.78051 3468 ft 183 kts 204°
2026-04-22 06:19 56.19188 12.77268 3473 ft 183 kts 204°
2026-04-22 06:19 56.17994 12.76485 3472 ft 183 kts 204°
2026-04-22 06:19 56.16815 12.75709 3473 ft 183 kts 204°
2026-04-22 06:19 56.15607 12.74910 3470 ft 182 kts 204°
2026-04-22 06:20 56.14440 12.74137 3470 ft 182 kts 204°
2026-04-22 06:20 56.13250 12.73353 3472 ft 182 kts 204°
2026-04-22 06:20 56.12058 12.72568 3475 ft 182 kts 204°
2026-04-22 06:20 56.10874 12.71782 3474 ft 182 kts 204°
2026-04-22 06:21 56.09687 12.70999 3478 ft 182 kts 204°
2026-04-22 06:21 56.08490 12.70257 3470 ft 183 kts 195°
2026-04-22 06:21 56.07229 12.70539 3475 ft 186 kts 158°
2026-04-22 06:21 56.06043 12.71472 3476 ft 187 kts 156°
2026-04-22 06:22 56.04851 12.72404 3481 ft 187 kts 156°
2026-04-22 06:22 56.03679 12.73327 3486 ft 186 kts 156°
2026-04-22 06:22 56.02490 12.74262 3480 ft 187 kts 156°
2026-04-22 06:22 56.01295 12.75198 3484 ft 188 kts 156°
2026-04-22 06:23 56.00095 12.76135 3483 ft 188 kts 156°
2026-04-22 06:23 55.98896 12.77072 3485 ft 188 kts 156°
2026-04-22 06:23 55.97700 12.78007 3481 ft 188 kts 156°
2026-04-22 06:23 55.96504 12.78939 3481 ft 187 kts 156°
2026-04-22 06:24 55.94126 12.80812 3482 ft 187 kts 156°
2026-04-22 06:24 55.92936 12.81751 3482 ft 187 kts 156°
2026-04-22 06:24 55.91763 12.82671 3482 ft 186 kts 156°
2026-04-22 06:25 55.90577 12.83599 3479 ft 186 kts 156°
2026-04-22 06:25 55.89390 12.84523 3478 ft 186 kts 156°
2026-04-22 06:25 55.88210 12.85447 3481 ft 186 kts 156°
2026-04-22 06:25 55.87024 12.86375 3490 ft 186 kts 156°
2026-04-22 06:26 55.85836 12.87305 3487 ft 187 kts 156°
2026-04-22 06:26 55.84644 12.88229 3484 ft 187 kts 156°
2026-04-22 06:26 55.83455 12.89143 3487 ft 186 kts 156°
2026-04-22 06:26 55.82266 12.90059 3489 ft 186 kts 156°
2026-04-22 06:27 55.81080 12.90978 3488 ft 186 kts 156°
2026-04-22 06:27 55.79908 12.91886 3486 ft 186 kts 156°
2026-04-22 06:27 55.78720 12.92797 3487 ft 186 kts 156°
2026-04-22 06:27 55.77534 12.93706 3487 ft 186 kts 156°
2026-04-22 06:28 55.76349 12.94620 3489 ft 186 kts 156°
2026-04-22 06:28 55.75163 12.95535 3488 ft 186 kts 156°
2026-04-22 06:28 55.73974 12.96453 3491 ft 187 kts 156°
2026-04-22 06:28 55.72780 12.97369 3494 ft 187 kts 156°
2026-04-22 06:29 55.71585 12.98277 3490 ft 186 kts 156°
2026-04-22 06:29 55.70400 12.99175 3485 ft 185 kts 156°
2026-04-22 06:29 55.69200 12.99985 3486 ft 184 kts 169°
2026-04-22 06:29 55.67928 13.00139 3494 ft 184 kts 180°
2026-04-22 06:30 55.66665 13.00215 3370 ft 179 kts 179°
2026-04-22 06:30 55.65497 13.00274 3089 ft 160 kts 180°
2026-04-22 06:30 55.64408 13.00331 2818 ft 154 kts 180°
2026-04-22 06:30 55.63350 13.00393 2553 ft 152 kts 179°
2026-04-22 06:31 55.62287 13.00455 2289 ft 153 kts 180°
2026-04-22 06:31 55.61224 13.00536 2028 ft 153 kts 174°
2026-04-22 06:31 55.60301 13.01386 1755 ft 151 kts 132°
2026-04-22 06:31 55.59573 13.02703 1493 ft 149 kts 132°
2026-04-22 06:32 55.58891 13.03953 1474 ft 135 kts 125°
2026-04-22 06:32 55.58344 13.05228 1471 ft 128 kts 123°
2026-04-22 06:32 55.57895 13.06535 1468 ft 122 kts 107°
2026-04-22 06:32 55.57548 13.07890 1465 ft 121 kts 109°
2026-04-22 06:33 55.57190 13.09228 1466 ft 121 kts 108°
2026-04-22 06:33 55.56991 13.10613 1474 ft 116 kts 89°
2026-04-22 06:33 55.56856 13.12028 1474 ft 118 kts 91°
2026-04-22 06:33 55.56721 13.13441 1477 ft 119 kts 90°
2026-04-22 06:34 55.56597 13.14883 1482 ft 119 kts 91°
2026-04-22 06:34 55.56473 13.16307 1489 ft 116 kts 91°
2026-04-22 06:34 55.56350 13.17707 1498 ft 116 kts 90°
2026-04-22 06:34 55.56231 13.19132 1494 ft 118 kts 91°
2026-04-22 06:35 55.56114 13.20571 1495 ft 118 kts 91°
2026-04-22 06:35 55.55994 13.22009 1499 ft 119 kts 91°
2026-04-22 06:35 55.55870 13.23459 1498 ft 120 kts 91°
2026-04-22 06:35 55.55547 13.24843 1495 ft 126 kts 118°
2026-04-22 06:36 55.55063 13.26122 1494 ft 126 kts 127°
2026-04-22 06:36 55.54511 13.27315 1496 ft 125 kts 122°
2026-04-22 06:36 55.53987 13.28541 1486 ft 124 kts 121°
2026-04-22 06:36 55.53654 13.29857 1511 ft 112 kts 103°
2026-04-22 06:37 55.53351 13.31060 1426 ft 104 kts 112°
2026-04-22 06:37 55.52961 13.32173 1057 ft 102 kts 119°
2026-04-22 06:37 55.52702 13.33200 800 ft 86 kts 99°
2026-04-22 06:37 55.52578 13.34196 578 ft 81 kts 99°
2026-04-22 06:38 55.52435 13.35160 404 ft 82 kts 100°
2026-04-22 06:38 55.52285 13.36126 248 ft 77 kts 98°
2026-04-22 06:38 55.52191 13.36781 237 ft 33 kts 105°
2026-04-22 06:38 55.52141 13.37062 237 ft 14 kts 85°
2026-04-22 06:39 55.52145 13.37139 237 ft 3 kts 95°
2026-04-22 06:39 55.52134 13.37198 237 ft 10 kts 97°
2026-04-22 06:39 55.52180 13.37301 237 ft 10 kts 36°
2026-04-22 06:39 55.52229 13.37352 238 ft 7 kts 31°
2026-04-22 06:40 55.52283 13.37409 239 ft 15 kts 31°
2026-04-22 06:40 55.52391 13.37466 240 ft 17 kts 352°
2026-04-22 06:40 55.52495 13.37484 240 ft 15 kts 53°
2026-04-22 06:40 55.52596 13.37537 240 ft 18 kts 352°
2026-04-22 06:41 55.52726 13.37512 238 ft 17 kts 355°
2026-04-22 06:41 55.52842 13.37490 237 ft 18 kts 354°
2026-04-22 06:41 55.52973 13.37463 239 ft 18 kts 353°
2026-04-22 06:41 55.53098 13.37437 235 ft 17 kts 353°
2026-04-22 06:42 55.53217 13.37413 234 ft 16 kts 353°
2026-04-22 06:42 55.53334 13.37389 232 ft 18 kts 352°
2026-04-22 06:42 55.53455 13.37368 232 ft 16 kts 351°
2026-04-22 06:42 55.53491 13.37268 230 ft 10 kts 261°
2026-04-22 06:43 55.53489 13.37141 231 ft 9 kts 335°
2026-04-22 06:43 55.53541 13.37131 230 ft 3 kts 324°
2026-04-22 06:43 55.53547 13.37101 230 ft 0 kts 265°